Weather Roundup
Issued by NWS

Home | Current Version | Previous Version | Graphics & Text | Print | Product List | Glossary Off
Versions: 1 2 3 4 5 6 7 8 9 10 11 12 13 14 15 16 17 18 19 20 21 22 23 24 25 26 27 28 29 30 31 32 33 34 35 36 37 38 39 40 41 42 43 44 45 46 47 48 49 50

386
NZUS93 KARX 271759
HRRWXR

CURRENT HOURLY OBSERVATIONS ACROSS
MUCH OF THE UPPER MISSISSIPPI VALLEY
NATIONAL WEATHER SERVICE LA CROSSE WI
100 PM CDT THU JUL 27 2017


...SOUTHEAST MINNESOTA...


CITY           SKY/WX    TMP DP  RH WIND       PRES   REMARKS
ROCHESTER      PTSUNNY   79  63  57 N8        30.08S
ROCHESTER/MAYO FAIR      81  59  47 NE7       30.07S
WINONA         MOSUNNY   79  63  57 E3        30.04F
AUSTIN         PTSUNNY   79  59  50 N6        30.07S
ALBERT LEA     SUNNY     81  63  54 N6        30.07F
DODGE CENTER   MOSUNNY   81  61  50 CALM      30.08S
PRESTON        MOSUNNY   78  62  58 NE6       30.07S
OWATONNA       PTSUNNY   81  64  57 N6        30.08S
FARIBAULT      MOSUNNY   81  64  57 N5        30.08S
$$

...ELSEWHERE IN MINNESOTA...


CITY           SKY/WX    TMP DP  RH WIND       PRES   REMARKS
MINNEAPOLIS    MOSUNNY   84  58  40 VRB3      30.07S
INTNL FALLS    PTSUNNY   80  55  42 NW6       30.10F
DULUTH         MOSUNNY   73  60  63 SE6       30.11S
RED WING       MOSUNNY   81  57  44 NE7       30.04F
REDWOOD FALLS  MOSUNNY   82  59  45 N5        30.10S
MANKATO        MOSUNNY   79  62  56 NW6       30.09S
WORTHINGTON    MOSUNNY   77  60  55 N9        30.13F
FAIRMONT       MOSUNNY   80  65  59 N7        30.09F
$$

...SOUTHWEST WISCONSIN...


CITY           SKY/WX    TMP DP  RH WIND       PRES   REMARKS
LA CROSSE      SUNNY     85  63  47 N9        30.02F
PRAIRIE DU CHI SUNNY     81  58  45 NE8       30.01S
BOSCOBEL       SUNNY     83  60  45 VRB7      30.01F
LONE ROCK      MOSUNNY   82  63  52 N13       30.01F
PLATTEVILLE    MOSUNNY   81  65  58 NE12      30.02S
FORT MC COY    SUNNY     80  58  45 N7        30.04F
MAUSTON-NEW LI PTCLDY    80  61  52 E5        30.03S
VIROQUA        FAIR      79  62  55 NE7       30.05F
WIS DELLS      SUNNY     80  57  46 E9        30.03F
$$

...ELSEWHERE IN WISCONSIN...


CITY           SKY/WX    TMP DP  RH WIND       PRES   REMARKS
MILWAUKEE      MOSUNNY   75  63  66 N18G25    29.99S
MADISON        MOSUNNY   80  62  54 NE13G20   30.00S
GREEN BAY      SUNNY     79  62  56 NE12      30.03S
EAU CLAIRE     NOT AVBL
BLACK RVR FLS  MOCLDY    82  58  43 NE3       30.03F
MEDFORD        PTSUNNY   77  58  51 NE8       30.07F
WAUSAU         PTSUNNY   79  59  50 E6        30.04F
WIS RAPIDS     MOSUNNY   83  61  47 N9        30.04F
MARSHFIELD     MOSUNNY   77  59  53 E5        30.05F
RICE LAKE      PTSUNNY   80  58  46 CALM      30.10S
$$

...NORTHEAST IOWA...


CITY           SKY/WX    TMP DP  RH WIND       PRES   REMARKS
WATERLOO       SUNNY     81  63  54 NE13      30.01F
DUBUQUE        MOSUNNY   80  66  62 NE12      30.00F
DECORAH        SUNNY     79  61  53 NE8G14    30.04S
MASON CITY     NOT AVBL
CHARLES CITY   SUNNY     81  61  50 NE9       30.05F
OELWEIN        SUNNY     79  63  57 N13       30.03F
$$

...ELSEWHERE IN IOWA...


CITY           SKY/WX    TMP DP  RH WIND       PRES   REMARKS
DES MOINES     PTSUNNY   83  66  56 N8        30.00F
IOWA CITY      PTSUNNY   84  69  60 NE12      29.99S
FORT DODGE     MOSUNNY   79  63  57 NE7       30.07S
MARSHALLTOWN   SUNNY     83  63  50 N13       30.01F
CEDAR RAPIDS   NOT AVBL
$$

...NORTHERN ILLINOIS...


CITY           SKY/WX    TMP DP  RH WIND       PRES   REMARKS
CHICAGO-OHARE  PTSUNNY   80  67  64 NE15      29.95S
CHICAGO-MIDWAY PTSUNNY   81  70  69 NE12      29.94S
MOLINE         PTSUNNY   84  70  62 NE8       29.95F
ROCKFORD       PTSUNNY   82  68  62 NE12      29.97F
PEORIA         CLOUDY    82  73  74 N7        29.93F
$$

NOTE: "FAIR" INDICATES FEW OR NO CLOUDS BELOW 12,000 FEET WITH NO
SIGNIFICANT WEATHER AND/OR OBSTRUCTIONS TO VISIBILITY. WIND
SPEEDS ARE IN MILES-PER-HOUR.




USA.gov is the U.S. government's official web portal to all federal, state and local government web resources and services.